Flag for Australia Weather past 2 weeks in Mackay, Queensland, Australia

Now
79 °F

Warm.


Feels Like: 81 °F
Forecast: 75 / 85 °F
Wind: 12 mph from East

Location: Mackay Mo

Current Time: Dec 23, 2014 at 1:53:44 AM

Latest Report: Dec 23, 2014 at 1:00 AM


Visibility: N/A

Pressure: 29.89 "Hg

Humidity: 65%

Dew point: 66 °F

Location of MackayLocation

Historic Weather in Mackay — Graph

°F

Mackay temperature yesterday

Maximum temperature yesterday: 86 °F (at 12:00 PM)
Minimum temperature yesterday: 79 °F (at 3:00 AM)
Average temperature yesterday: 81 °F

Past Weeks' High & Low Weather Summary

 TemperatureHumidityPressure
High93 °F (Dec 11, 12:00 PM)99% (Dec 12, 10:00 AM)29.96 "Hg (Dec 12, 10:00 AM)
Low71 °F (Dec 15, 4:00 AM)43% (Dec 16, 12:00 PM)29.57 "Hg (Dec 13, 4:00 AM)
Average81 °F74%29.82 "Hg
* Reported Midnight between Dec 7 and Dec 8 — Midnight between Dec 22 and Dec 23, Mackay, Weather by CustomWeather, © 2014

Note: Actual official high and low records may vary slightly from our data, if they occured in-between our weather recording intervals... More about our weather records

Advertising

Mackay weather history for previous 24 hours

 ConditionsComfort  
Time TempWeatherWind HumidityBarometerVisibility
12:00 AM
Dec 23
79 °FOvercast.10 mph64%29.92 "HgN/A
10:00 PM
Dec 22
79 °FWarm.9 mph66%29.94 "HgN/A
9:00 PM79 °FWarm.9 mph65%29.93 "HgN/A
7:00 PM79 °FWarm.10 mph65%29.91 "HgN/A
6:00 PM80 °FPassing clouds.9 mph62%29.90 "HgN/A
4:00 PM84 °FWarm.9 mph54%29.88 "HgN/A
3:00 PM85 °FPassing clouds.12 mph53%29.89 "Hg16 mi
1:00 PM86 °FWarm.12 mph49%29.93 "HgN/A
12:00 PM86 °FPassing clouds.12 mph54%29.94 "Hg16 mi
10:00 AM85 °FWarm.9 mph54%29.95 "HgN/A
9:00 AM84 °FPassing clouds.9 mph55%29.95 "Hg16 mi
7:00 AM80 °FWarm.8 mph64%29.93 "HgN/A
6:00 AM79 °FScattered clouds.10 mph65%29.90 "Hg16 mi
4:00 AM79 °FWarm.8 mph71%29.89 "HgN/A
3:00 AM79 °FPassing clouds.9 mph69%29.89 "HgN/A
1:00 AM79 °FWarm.9 mph70%29.92 "HgN/A
Weather by CustomWeather, © 2014

See weather overviewHow to use our weather pages